Dania, FL

12:20 PM EST on February 26, 2017 (GMT -0500)
Fort Lauderdale-Hollywood International

Weather History for KFLL - December, 2011

Change the Weather History Date:

Saturday, December 31, 2011

  Actual Average Record
Temperature  
Mean Temperature 71 °F 69 °F  
Max Temperature 82 °F 76 °F 86 °F (1970)
Min Temperature 60 °F 62 °F 35 °F (1917)
Degree Days  
Heating Degree Days 0 2  
Month to date heating degree days 1 28  
Since 1 July heating degree days 1 32  
Cooling Degree Days 6 6  
Month to date cooling degree days 272 216  
Year to date cooling degree days 4864 4729  
Growing Degree Days 21 (Base 50)    
Moisture  
Dew Point 58 °F    
Average Humidity 70    
Maximum Humidity 100    
Minimum Humidity 39    
Precipitation  
Precipitation 0.00 in 0.06 in 2.85 in (1963)
Month to date precipitation 1.33 2.46  
Year to date precipitation 40.62 62.18  
Snow  
Snow 0.00 in - - ()
Month to date snowfall 0.0  
Since 1 July snowfall 0.0  
Snow Depth 0.00 in    
Sea Level Pressure  
Sea Level Pressure 30.16 in    
Wind  
Wind Speed 3 mph (ENE)    
Max Wind Speed 12 mph    
Max Gust Speed 13 mph    
Visibility 10 miles    
Events      
T = Trace of Precipitation, MM = Missing Value Source: NWS Daily Summary

Daily Weather History Graph

Daily Weather History Graph

Search for Another Location

Airport or City:

Trip Planner

Search our weather history database for the weather conditions in past years. The results will help you decide how hot, cold, wet, or windy it might be!

Date:

Astronomy

Dec. 31, 2011 Rise Set
Actual Time 7:07 AM EST 5:39 PM EST
Civil Twilight 6:42 AM EST 6:04 PM EST
Nautical Twilight 6:13 AM EST 6:33 PM EST
Astronomical Twilight 5:45 AM EST 7:01 PM EST
Moon 11:35 AM EST (12/31) No Moon Set
Length of Visible Light 11h 22m
Length of Day
10h 32m
Waxing Crescent, 45% of the Moon is Illuminated
Dec 31
Waxing Crescent
Jan 1
First Quarter
Jan 9
Full
Jan 16
Last Quarter
Jan 23
New

Hourly Weather History & Observations

Time (EST) Temp. Heat Index Dew Point Humidity Pressure Visibility Wind Dir Wind Speed Gust Speed Precip Events Conditions
12:53 AM 62.1 °F - 57.0 °F 84% 30.13 in 10.0 mi Calm Calm - N/A   Clear
1:53 AM 62.1 °F - 57.0 °F 84% 30.13 in 10.0 mi Calm Calm - N/A   Clear
2:53 AM 63.0 °F - 59.0 °F 87% 30.12 in 10.0 mi Calm Calm - N/A   Clear
3:53 AM 61.0 °F - 57.9 °F 90% 30.13 in 10.0 mi Calm Calm - N/A   Clear
4:53 AM 61.0 °F - 57.9 °F 90% 30.14 in 9.0 mi NNW 3.5 mph - N/A   Clear
5:53 AM 61.0 °F - 59.0 °F 93% 30.14 in 9.0 mi Calm Calm - N/A   Clear
6:53 AM 61.0 °F - 59.0 °F 93% 30.16 in 7.0 mi Calm Calm - N/A   Partly Cloudy
7:53 AM 61.0 °F - 60.1 °F 97% 30.17 in 8.0 mi Calm Calm - N/A   Clear
8:53 AM 69.1 °F - 59.0 °F 70% 30.19 in 10.0 mi Calm Calm - N/A   Clear
9:53 AM 73.9 °F - 57.9 °F 57% 30.21 in 10.0 mi NW 3.5 mph - N/A   Clear
10:53 AM 78.1 °F - 55.9 °F 46% 30.20 in 10.0 mi Variable 3.5 mph - N/A   Clear
11:53 AM 80.1 °F 80.2 °F 55.9 °F 43% 30.18 in 10.0 mi NNW 8.1 mph - N/A   Clear
12:53 PM 80.1 °F 80.0 °F 54.0 °F 40% 30.16 in 10.0 mi Calm Calm - N/A   Partly Cloudy
1:53 PM 81.0 °F 80.5 °F 54.0 °F 39% 30.13 in 10.0 mi NNW 4.6 mph - N/A   Partly Cloudy
2:53 PM 79.0 °F - 59.0 °F 50% 30.12 in 10.0 mi East 6.9 mph - N/A   Partly Cloudy
3:53 PM 78.1 °F - 59.0 °F 52% 30.13 in 10.0 mi East 10.4 mph - N/A   Partly Cloudy
4:53 PM 75.9 °F - 60.1 °F 58% 30.14 in 10.0 mi East 8.1 mph - N/A   Partly Cloudy
5:53 PM 73.9 °F - 60.1 °F 62% 30.15 in 10.0 mi East 5.8 mph - N/A   Clear
6:53 PM 73.9 °F - 60.1 °F 62% 30.17 in 10.0 mi ENE 6.9 mph - N/A   Clear
7:53 PM 70.0 °F - 60.1 °F 71% 30.19 in 10.0 mi ESE 4.6 mph - N/A   Clear
8:53 PM 71.1 °F - 60.1 °F 68% 30.20 in 10.0 mi East 4.6 mph - N/A   Clear
9:53 PM 69.1 °F - 60.1 °F 73% 30.21 in 10.0 mi East 3.5 mph - N/A   Clear
10:53 PM 69.1 °F - 60.1 °F 73% 30.21 in 10.0 mi East 3.5 mph - N/A   Clear
11:53 PM 68.0 °F - 60.1 °F 76% 30.21 in 10.0 mi ESE 3.5 mph - N/A   Clear